Year,Month,Day,Hour,Minute,Value (Times are PST for windgust in km/hr)
2014,02,15,01,02,1.60
2014,02,15,01,22,3.20
2014,02,15,01,23,4.80
2014,02,15,01,54,3.20
2014,02,15,01,58,3.20
2014,02,15,01,59,3.20
2014,02,15,04,03,3.20
2014,02,15,04,04,1.60
2014,02,15,04,27,4.80
2014,02,15,04,28,4.80
2014,02,15,04,30,6.40
2014,02,15,04,31,3.20
2014,02,15,04,35,3.20
2014,02,15,04,36,4.80
2014,02,15,04,40,4.80
2014,02,15,04,41,3.20
2014,02,15,04,42,3.20
2014,02,15,04,48,3.20
2014,02,15,04,50,4.80
2014,02,15,04,51,3.20
2014,02,15,04,52,14.50
2014,02,15,04,53,17.70
2014,02,15,04,54,11.30
2014,02,15,04,55,12.90
2014,02,15,04,56,14.50
2014,02,15,04,57,8.10
2014,02,15,04,58,9.60
2014,02,15,04,59,9.60
2014,02,15,05,00,8.10
2014,02,15,05,01,9.60
2014,02,15,05,02,4.80
2014,02,15,05,03,8.10
2014,02,15,05,04,11.30
2014,02,15,05,05,11.30
2014,02,15,05,06,9.60
2014,02,15,05,07,11.30
2014,02,15,05,08,6.40
2014,02,15,05,09,9.60
2014,02,15,05,10,9.60
2014,02,15,05,11,11.30
2014,02,15,05,12,9.60
2014,02,15,05,13,6.40
2014,02,15,05,14,8.10
2014,02,15,05,15,14.50
2014,02,15,05,16,11.30
2014,02,15,05,17,11.30
2014,02,15,05,18,11.30
2014,02,15,05,19,11.30
2014,02,15,05,20,11.30
2014,02,15,05,21,6.40
2014,02,15,05,22,6.40
2014,02,15,05,23,4.80
2014,02,15,05,24,6.40
2014,02,15,05,25,14.50
2014,02,15,05,26,9.60
2014,02,15,05,27,6.40
2014,02,15,05,28,6.40
2014,02,15,05,29,8.10
2014,02,15,05,30,8.10
2014,02,15,05,31,4.80
2014,02,15,05,32,6.40
2014,02,15,05,33,4.80
2014,02,15,05,34,4.80
2014,02,15,05,35,8.10
2014,02,15,05,36,4.80
2014,02,15,05,37,4.80
2014,02,15,05,38,4.80
2014,02,15,05,39,4.80
2014,02,15,05,40,6.40
2014,02,15,05,41,3.20
2014,02,15,05,42,4.80
2014,02,15,05,44,6.40
2014,02,15,05,45,9.60
2014,02,15,05,46,6.40
2014,02,15,05,47,4.80
2014,02,15,05,48,4.80
2014,02,15,05,49,6.40
2014,02,15,05,50,6.40
2014,02,15,05,51,6.40
2014,02,15,05,52,4.80
2014,02,15,05,53,4.80
2014,02,15,05,54,3.20
2014,02,15,05,55,1.60
2014,02,15,05,56,4.80
2014,02,15,05,57,6.40
2014,02,15,05,58,8.10
2014,02,15,05,59,4.80
2014,02,15,06,00,4.80
2014,02,15,06,01,4.80
2014,02,15,06,02,4.80
2014,02,15,06,03,9.60
2014,02,15,06,04,9.60
2014,02,15,06,05,6.40
2014,02,15,06,06,8.10
2014,02,15,06,07,11.30
2014,02,15,06,08,9.60
2014,02,15,06,09,6.40
2014,02,15,06,10,6.40
2014,02,15,06,11,4.80
2014,02,15,06,14,4.80
2014,02,15,06,15,8.10
2014,02,15,06,16,4.80
2014,02,15,06,17,6.40
2014,02,15,06,18,6.40
2014,02,15,06,19,6.40
2014,02,15,06,20,8.10
2014,02,15,06,21,8.10
2014,02,15,06,22,8.10
2014,02,15,06,23,4.80
2014,02,15,06,24,1.60
2014,02,15,06,25,4.80
2014,02,15,06,26,4.80
2014,02,15,06,27,6.40
2014,02,15,06,28,6.40
2014,02,15,06,29,9.60
2014,02,15,06,30,9.60
2014,02,15,06,31,6.40
2014,02,15,06,32,6.40
2014,02,15,06,33,1.60
2014,02,15,06,34,8.10
2014,02,15,06,35,6.40
2014,02,15,06,36,8.10
2014,02,15,06,37,9.60
2014,02,15,06,38,6.40
2014,02,15,06,39,3.20
2014,02,15,06,40,11.30
2014,02,15,06,41,8.10
2014,02,15,06,42,6.40
2014,02,15,06,43,4.80
2014,02,15,06,44,8.10
2014,02,15,06,45,8.10
2014,02,15,06,47,4.80
2014,02,15,06,48,4.80
2014,02,15,06,49,4.80
2014,02,15,06,50,1.60
2014,02,15,06,51,4.80
2014,02,15,06,52,6.40
2014,02,15,06,53,4.80
2014,02,15,06,54,3.20
2014,02,15,06,55,8.10
2014,02,15,06,56,4.80
2014,02,15,06,57,6.40
2014,02,15,06,58,4.80
2014,02,15,06,59,3.20
2014,02,15,07,00,6.40
2014,02,15,07,01,3.20
2014,02,15,07,02,3.20
2014,02,15,07,03,6.40
2014,02,15,07,04,9.60
2014,02,15,07,05,8.10
2014,02,15,07,06,6.40
2014,02,15,07,07,3.20
2014,02,15,07,08,3.20
2014,02,15,07,09,3.20
2014,02,15,07,10,4.80
2014,02,15,07,11,11.30
2014,02,15,07,12,8.10
2014,02,15,07,13,14.50
2014,02,15,07,14,11.30
2014,02,15,07,15,4.80
2014,02,15,07,16,6.40
2014,02,15,07,17,8.10
2014,02,15,07,18,6.40
2014,02,15,07,19,9.60
2014,02,15,07,20,6.40
2014,02,15,07,21,4.80
2014,02,15,07,22,6.40
2014,02,15,07,23,4.80
2014,02,15,07,24,8.10
2014,02,15,07,25,8.10
2014,02,15,07,26,6.40
2014,02,15,07,27,3.20
2014,02,15,07,28,4.80
2014,02,15,07,29,4.80
2014,02,15,07,30,4.80
2014,02,15,07,31,9.60
2014,02,15,07,32,8.10
2014,02,15,07,33,6.40
2014,02,15,07,34,3.20
2014,02,15,07,35,9.60
2014,02,15,07,36,4.80
2014,02,15,07,37,6.40
2014,02,15,07,38,6.40
2014,02,15,07,39,6.40
2014,02,15,07,40,6.40
2014,02,15,07,41,8.10
2014,02,15,07,42,6.40
2014,02,15,07,43,6.40
2014,02,15,07,44,4.80
2014,02,15,07,45,1.60
2014,02,15,07,46,6.40
2014,02,15,07,47,6.40
2014,02,15,07,48,6.40
2014,02,15,07,49,8.10
2014,02,15,07,50,9.60
2014,02,15,07,51,8.10
2014,02,15,07,52,6.40
2014,02,15,07,53,3.20
2014,02,15,07,54,3.20
2014,02,15,07,55,4.80
2014,02,15,07,56,3.20
2014,02,15,07,57,3.20
2014,02,15,07,58,6.40
2014,02,15,07,59,3.20
2014,02,15,08,00,4.80
2014,02,15,08,01,4.80
2014,02,15,08,03,6.40
2014,02,15,08,04,8.10
2014,02,15,08,05,8.10
2014,02,15,08,06,4.80
2014,02,15,08,07,3.20
2014,02,15,08,08,8.10
2014,02,15,08,09,4.80
2014,02,15,08,10,4.80
2014,02,15,08,11,6.40
2014,02,15,08,12,9.60
2014,02,15,08,13,8.10
2014,02,15,08,14,11.30
2014,02,15,08,15,11.30
2014,02,15,08,16,8.10
2014,02,15,08,17,6.40
2014,02,15,08,18,8.10
2014,02,15,08,19,6.40
2014,02,15,08,20,9.60
2014,02,15,08,21,11.30
2014,02,15,08,22,8.10
2014,02,15,08,23,11.30
2014,02,15,08,24,11.30
2014,02,15,08,25,11.30
2014,02,15,08,26,11.30
2014,02,15,08,27,11.30
2014,02,15,08,28,9.60
2014,02,15,08,29,9.60
2014,02,15,08,30,9.60
2014,02,15,08,31,6.40
2014,02,15,08,32,11.30
2014,02,15,08,33,8.10
2014,02,15,08,34,8.10
2014,02,15,08,35,6.40
2014,02,15,08,36,8.10
2014,02,15,08,37,9.60
2014,02,15,08,38,6.40
2014,02,15,08,39,11.30
2014,02,15,08,40,11.30
2014,02,15,08,41,6.40
2014,02,15,08,42,4.80
2014,02,15,08,43,9.60
2014,02,15,08,44,6.40
2014,02,15,08,45,11.30
2014,02,15,08,46,9.60
2014,02,15,08,47,9.60
2014,02,15,08,48,4.80
2014,02,15,08,49,6.40
2014,02,15,08,50,3.20
2014,02,15,08,51,17.70
2014,02,15,08,52,6.40
2014,02,15,08,53,11.30
2014,02,15,08,54,9.60
2014,02,15,08,55,8.10
2014,02,15,08,56,8.10
2014,02,15,08,57,6.40
2014,02,15,08,58,9.60
2014,02,15,08,59,4.80
2014,02,15,09,00,3.20
2014,02,15,09,01,3.20
2014,02,15,09,02,6.40
2014,02,15,09,03,4.80
2014,02,15,09,04,4.80
2014,02,15,09,05,4.80
2014,02,15,09,06,6.40
2014,02,15,09,07,8.10
2014,02,15,09,08,8.10
2014,02,15,09,09,8.10
2014,02,15,09,10,4.80
2014,02,15,09,11,3.20
2014,02,15,09,12,6.40
2014,02,15,09,13,3.20
2014,02,15,09,14,6.40
2014,02,15,09,15,8.10
2014,02,15,09,16,3.20
2014,02,15,09,17,4.80
2014,02,15,09,18,11.30
2014,02,15,09,19,11.30
2014,02,15,09,20,9.60
2014,02,15,09,21,6.40
2014,02,15,09,22,3.20
2014,02,15,09,23,4.80
2014,02,15,09,24,4.80
2014,02,15,09,25,3.20
2014,02,15,09,26,8.10
2014,02,15,09,27,6.40
2014,02,15,09,28,9.60
2014,02,15,09,29,6.40
2014,02,15,09,30,3.20
2014,02,15,09,31,4.80
2014,02,15,09,32,8.10
2014,02,15,09,33,4.80
2014,02,15,09,35,4.80
2014,02,15,09,36,8.10
2014,02,15,09,37,4.80
2014,02,15,09,38,4.80
2014,02,15,09,39,6.40
2014,02,15,09,40,8.10
2014,02,15,09,41,6.40
2014,02,15,09,42,4.80
2014,02,15,09,43,8.10
2014,02,15,09,44,4.80
2014,02,15,09,45,6.40
2014,02,15,09,46,3.20
2014,02,15,09,47,6.40
2014,02,15,09,48,6.40
2014,02,15,09,49,3.20
2014,02,15,09,50,4.80
2014,02,15,09,51,3.20
2014,02,15,09,52,1.60
2014,02,15,09,53,4.80
2014,02,15,09,54,3.20
2014,02,15,09,55,1.60
2014,02,15,09,56,4.80
2014,02,15,09,57,8.10
2014,02,15,09,58,4.80
2014,02,15,09,59,1.60
2014,02,15,10,00,4.80
2014,02,15,10,01,6.40
2014,02,15,10,02,3.20
2014,02,15,10,03,8.10
2014,02,15,10,04,6.40
2014,02,15,10,05,9.60
2014,02,15,10,06,6.40
2014,02,15,10,09,8.10
2014,02,15,10,10,9.60
2014,02,15,10,11,6.40
2014,02,15,10,12,4.80
2014,02,15,10,13,4.80
2014,02,15,10,14,4.80
2014,02,15,10,15,4.80
2014,02,15,10,16,4.80
2014,02,15,10,17,3.20
2014,02,15,10,19,6.40
2014,02,15,10,20,6.40
2014,02,15,10,21,6.40
2014,02,15,10,22,11.30
2014,02,15,10,23,9.60
2014,02,15,10,24,4.80
2014,02,15,10,25,6.40
2014,02,15,10,26,9.60
2014,02,15,10,27,6.40
2014,02,15,10,28,4.80
2014,02,15,10,29,11.30
2014,02,15,10,30,6.40
2014,02,15,10,31,9.60
2014,02,15,10,32,11.30
2014,02,15,10,33,8.10
2014,02,15,10,34,8.10
2014,02,15,10,35,6.40
2014,02,15,10,36,8.10
2014,02,15,10,37,8.10
2014,02,15,10,38,8.10
2014,02,15,10,39,6.40
2014,02,15,10,40,6.40
2014,02,15,10,41,4.80
2014,02,15,10,42,9.60
2014,02,15,10,43,9.60
2014,02,15,10,44,12.90
2014,02,15,10,45,11.30
2014,02,15,10,46,14.50
2014,02,15,10,47,16.10
2014,02,15,10,48,9.60
2014,02,15,10,49,9.60
2014,02,15,10,50,9.60
2014,02,15,10,51,12.90
2014,02,15,10,52,9.60
2014,02,15,10,53,9.60
2014,02,15,10,54,16.10
2014,02,15,10,55,6.40
2014,02,15,10,56,14.50
2014,02,15,10,57,8.10
2014,02,15,10,58,9.60
2014,02,15,10,59,11.30
2014,02,15,11,00,11.30
2014,02,15,11,01,14.50
2014,02,15,11,02,6.40
2014,02,15,11,03,9.60
2014,02,15,11,04,11.30
2014,02,15,11,05,9.60
2014,02,15,11,06,12.90
2014,02,15,11,07,16.10
2014,02,15,11,08,8.10
2014,02,15,11,09,14.50
2014,02,15,11,10,6.40
2014,02,15,11,11,8.10
2014,02,15,11,12,8.10
2014,02,15,11,13,9.60
2014,02,15,11,14,9.60
2014,02,15,11,15,14.50
2014,02,15,11,16,19.30
2014,02,15,11,17,16.10
2014,02,15,11,18,17.70
2014,02,15,11,19,14.50
2014,02,15,11,20,16.10
2014,02,15,11,21,9.60
2014,02,15,11,22,9.60
2014,02,15,11,23,14.50
2014,02,15,11,24,12.90
2014,02,15,11,25,9.60
2014,02,15,11,26,11.30
2014,02,15,11,27,4.80
2014,02,15,11,28,8.10
2014,02,15,11,29,9.60
2014,02,15,11,30,9.60
2014,02,15,11,31,9.60
2014,02,15,11,32,8.10
2014,02,15,11,33,4.80
2014,02,15,11,34,14.50
2014,02,15,11,35,14.50
2014,02,15,11,36,11.30
2014,02,15,11,37,11.30
2014,02,15,11,38,11.30
2014,02,15,11,39,9.60
2014,02,15,11,40,12.90
2014,02,15,11,41,11.30
2014,02,15,11,42,14.50
2014,02,15,11,43,11.30
2014,02,15,11,44,14.50
2014,02,15,11,45,8.10
2014,02,15,11,46,12.90
2014,02,15,11,47,16.10
2014,02,15,11,48,9.60
2014,02,15,11,49,8.10
2014,02,15,11,50,6.40
2014,02,15,11,51,9.60
2014,02,15,11,52,14.50
2014,02,15,11,53,8.10
2014,02,15,11,54,9.60
2014,02,15,11,55,9.60
2014,02,15,11,56,4.80
2014,02,15,11,57,4.80
2014,02,15,11,58,9.60
2014,02,15,11,59,6.40
2014,02,15,12,00,9.60
2014,02,15,12,01,4.80
2014,02,15,12,02,4.80
2014,02,15,12,03,6.40
2014,02,15,12,04,4.80
2014,02,15,12,05,8.10
2014,02,15,12,06,6.40
2014,02,15,12,07,14.50
2014,02,15,12,08,6.40
2014,02,15,12,09,4.80
2014,02,15,12,10,8.10
2014,02,15,12,11,8.10
2014,02,15,12,13,3.20
2014,02,15,12,15,11.30
2014,02,15,12,16,8.10
2014,02,15,12,17,4.80
2014,02,15,12,18,4.80
2014,02,15,12,19,6.40
2014,02,15,12,21,1.60
2014,02,15,12,22,1.60
2014,02,15,12,23,8.10
2014,02,15,12,24,4.80
2014,02,15,12,25,3.20
2014,02,15,12,26,6.40
2014,02,15,12,27,3.20
2014,02,15,12,28,8.10
2014,02,15,12,29,6.40
2014,02,15,12,30,8.10
2014,02,15,12,31,6.40
2014,02,15,12,32,11.30
2014,02,15,12,33,6.40
2014,02,15,12,34,9.60
2014,02,15,12,35,8.10
2014,02,15,12,36,6.40
2014,02,15,12,37,4.80
2014,02,15,12,38,1.60
2014,02,15,12,39,4.80
2014,02,15,12,40,3.20
2014,02,15,12,41,4.80
2014,02,15,12,42,4.80
2014,02,15,12,43,8.10
2014,02,15,12,44,9.60
2014,02,15,12,45,8.10
2014,02,15,12,46,8.10
2014,02,15,12,47,4.80
2014,02,15,12,48,4.80
2014,02,15,12,49,9.60
2014,02,15,12,50,8.10
2014,02,15,12,51,6.40
2014,02,15,12,52,11.30
2014,02,15,12,53,11.30
2014,02,15,12,54,6.40
2014,02,15,12,55,8.10
2014,02,15,12,56,16.10
2014,02,15,12,57,9.60
2014,02,15,12,58,9.60
2014,02,15,12,59,11.30
2014,02,15,13,00,9.60
2014,02,15,13,01,9.60
2014,02,15,13,02,19.30
2014,02,15,13,03,20.90
2014,02,15,13,04,11.30
2014,02,15,13,05,22.50
2014,02,15,13,06,25.70
2014,02,15,13,07,11.30
2014,02,15,13,08,14.50
2014,02,15,13,09,11.30
2014,02,15,13,10,22.50
2014,02,15,13,11,17.70
2014,02,15,13,12,20.90
2014,02,15,13,13,16.10
2014,02,15,13,14,11.30
2014,02,15,13,15,24.20
2014,02,15,13,16,17.70
2014,02,15,13,17,11.30
2014,02,15,13,18,20.90
2014,02,15,13,19,17.70
2014,02,15,13,20,19.30
2014,02,15,13,21,11.30
2014,02,15,13,22,14.50
2014,02,15,13,23,22.50
2014,02,15,13,24,20.90
2014,02,15,13,25,12.90
2014,02,15,13,26,9.60
2014,02,15,13,27,9.60
2014,02,15,13,28,11.30
2014,02,15,13,29,11.30
2014,02,15,13,30,9.60
2014,02,15,13,31,14.50
2014,02,15,13,32,11.30
2014,02,15,13,33,19.30
2014,02,15,13,34,11.30
2014,02,15,13,35,9.60
2014,02,15,13,36,17.70
2014,02,15,13,37,17.70
2014,02,15,13,38,8.10
2014,02,15,13,39,19.30
2014,02,15,13,40,17.70
2014,02,15,13,41,14.50
2014,02,15,13,42,11.30
2014,02,15,13,43,17.70
2014,02,15,13,44,19.30
2014,02,15,13,45,16.10
2014,02,15,13,46,17.70
2014,02,15,13,47,9.60
2014,02,15,13,48,9.60
2014,02,15,13,49,8.10
2014,02,15,13,50,14.50
2014,02,15,13,51,9.60
2014,02,15,13,52,14.50
2014,02,15,13,53,12.90
2014,02,15,13,54,6.40
2014,02,15,13,55,11.30
2014,02,15,13,56,9.60
2014,02,15,13,57,17.70
2014,02,15,13,58,16.10
2014,02,15,13,59,11.30
2014,02,15,14,00,12.90
2014,02,15,14,01,14.50
2014,02,15,14,02,11.30
2014,02,15,14,03,17.70
2014,02,15,14,04,4.80
2014,02,15,14,05,6.40
2014,02,15,14,06,9.60
2014,02,15,14,07,9.60
2014,02,15,14,08,11.30
2014,02,15,14,09,11.30
2014,02,15,14,10,12.90
2014,02,15,14,11,25.70
2014,02,15,14,12,20.90
2014,02,15,14,13,17.70
2014,02,15,14,14,19.30
2014,02,15,14,15,14.50
2014,02,15,14,16,17.70
2014,02,15,14,17,16.10
2014,02,15,14,18,16.10
2014,02,15,14,19,9.60
2014,02,15,14,20,16.10
2014,02,15,14,21,16.10
2014,02,15,14,22,14.50
2014,02,15,14,23,20.90
2014,02,15,14,24,16.10
2014,02,15,14,25,17.70
2014,02,15,14,26,11.30
2014,02,15,14,27,12.90
2014,02,15,14,28,11.30
2014,02,15,14,29,16.10
2014,02,15,14,30,19.30
2014,02,15,14,31,19.30
2014,02,15,14,32,17.70
2014,02,15,14,33,11.30
2014,02,15,14,34,22.50
2014,02,15,14,35,29.00
2014,02,15,14,36,25.70
2014,02,15,14,37,17.70
2014,02,15,14,38,9.60
2014,02,15,14,39,14.50
2014,02,15,14,40,16.10
2014,02,15,14,41,16.10
2014,02,15,14,42,16.10
2014,02,15,14,43,16.10
2014,02,15,14,44,20.90
2014,02,15,14,45,9.60
2014,02,15,14,46,19.30
2014,02,15,14,47,19.30
2014,02,15,14,48,16.10
2014,02,15,14,49,19.30
2014,02,15,14,50,20.90
2014,02,15,14,51,11.30
2014,02,15,14,52,19.30
2014,02,15,14,53,14.50
2014,02,15,14,54,17.70
2014,02,15,14,55,20.90
2014,02,15,14,56,17.70
2014,02,15,14,57,8.10
2014,02,15,14,58,14.50
2014,02,15,14,59,8.10
2014,02,15,15,00,9.60
2014,02,15,15,01,9.60
2014,02,15,15,02,9.60
2014,02,15,15,03,8.10
2014,02,15,15,04,19.30
2014,02,15,15,05,19.30
2014,02,15,15,06,14.50
2014,02,15,15,07,16.10
2014,02,15,15,08,12.90
2014,02,15,15,09,17.70
2014,02,15,15,10,20.90
2014,02,15,15,11,17.70
2014,02,15,15,12,11.30
2014,02,15,15,13,16.10
2014,02,15,15,14,17.70
2014,02,15,15,15,19.30
2014,02,15,15,16,16.10
2014,02,15,15,17,14.50
2014,02,15,15,18,17.70
2014,02,15,15,19,12.90
2014,02,15,15,20,16.10
2014,02,15,15,21,16.10
2014,02,15,15,22,11.30
2014,02,15,15,23,14.50
2014,02,15,15,24,16.10
2014,02,15,15,25,20.90
2014,02,15,15,26,12.90
2014,02,15,15,27,20.90
2014,02,15,15,28,16.10
2014,02,15,15,29,17.70
2014,02,15,15,30,19.30
2014,02,15,15,31,20.90
2014,02,15,15,32,9.60
2014,02,15,15,33,11.30
2014,02,15,15,34,14.50
2014,02,15,15,35,14.50
2014,02,15,15,36,14.50
2014,02,15,15,37,17.70
2014,02,15,15,38,11.30
2014,02,15,15,39,9.60
2014,02,15,15,40,6.40
2014,02,15,15,41,9.60
2014,02,15,15,42,8.10
2014,02,15,15,43,11.30
2014,02,15,15,44,9.60
2014,02,15,15,45,19.30
2014,02,15,15,46,11.30
2014,02,15,15,47,16.10
2014,02,15,15,48,17.70
2014,02,15,15,49,12.90
2014,02,15,15,50,14.50
2014,02,15,15,51,12.90
2014,02,15,15,52,9.60
2014,02,15,15,53,11.30
2014,02,15,15,54,11.30
2014,02,15,15,55,22.50
2014,02,15,15,56,9.60
2014,02,15,15,57,9.60
2014,02,15,15,58,11.30
2014,02,15,15,59,16.10
2014,02,15,16,00,19.30
2014,02,15,16,01,19.30
2014,02,15,16,02,11.30
2014,02,15,16,03,9.60
2014,02,15,16,04,9.60
2014,02,15,16,05,11.30
2014,02,15,16,06,9.60
2014,02,15,16,07,9.60
2014,02,15,16,08,9.60
2014,02,15,16,09,8.10
2014,02,15,16,10,11.30
2014,02,15,16,11,16.10
2014,02,15,16,12,14.50
2014,02,15,16,13,17.70
2014,02,15,16,14,16.10
2014,02,15,16,15,9.60
2014,02,15,16,16,8.10
2014,02,15,16,17,9.60
2014,02,15,16,18,25.70
2014,02,15,16,19,24.20
2014,02,15,16,20,22.50
2014,02,15,16,21,14.50
2014,02,15,16,22,4.80
2014,02,15,16,23,12.90
2014,02,15,16,24,16.10
2014,02,15,16,25,12.90
2014,02,15,16,26,9.60
2014,02,15,16,27,16.10
2014,02,15,16,28,12.90
2014,02,15,16,29,19.30
2014,02,15,16,30,14.50
2014,02,15,16,31,20.90
2014,02,15,16,32,16.10
2014,02,15,16,33,19.30
2014,02,15,16,34,25.70
2014,02,15,16,35,19.30
2014,02,15,16,36,16.10
2014,02,15,16,37,8.10
2014,02,15,16,38,9.60
2014,02,15,16,39,14.50
2014,02,15,16,40,11.30
2014,02,15,16,41,8.10
2014,02,15,16,42,17.70
2014,02,15,16,43,14.50
2014,02,15,16,44,20.90
2014,02,15,16,45,22.50
2014,02,15,16,46,19.30
2014,02,15,16,47,16.10
2014,02,15,16,48,24.20
2014,02,15,16,49,24.20
2014,02,15,16,50,24.20
2014,02,15,16,51,19.30
2014,02,15,16,52,17.70
2014,02,15,16,53,14.50
2014,02,15,16,54,25.70
2014,02,15,16,55,16.10
2014,02,15,16,56,9.60
2014,02,15,16,57,9.60
2014,02,15,16,58,6.40
2014,02,15,16,59,8.10
2014,02,15,17,00,6.40
2014,02,15,17,01,6.40
2014,02,15,17,02,16.10
2014,02,15,17,03,17.70
2014,02,15,17,04,8.10
2014,02,15,17,05,9.60
2014,02,15,17,06,17.70
2014,02,15,17,07,19.30
2014,02,15,17,08,17.70
2014,02,15,17,09,12.90
2014,02,15,17,10,11.30
2014,02,15,17,11,11.30
2014,02,15,17,12,11.30
2014,02,15,17,13,17.70
2014,02,15,17,14,14.50
2014,02,15,17,15,16.10
2014,02,15,17,16,9.60
2014,02,15,17,17,4.80
2014,02,15,17,19,4.80
2014,02,15,17,21,6.40
2014,02,15,17,22,19.30
2014,02,15,17,23,19.30
2014,02,15,17,24,14.50
2014,02,15,17,25,30.60
2014,02,15,17,26,27.40
2014,02,15,17,27,22.50
2014,02,15,17,28,16.10
2014,02,15,17,29,8.10
2014,02,15,17,30,25.70
2014,02,15,17,31,29.00
2014,02,15,17,32,41.80
2014,02,15,17,33,45.10
2014,02,15,17,34,46.70
2014,02,15,17,35,29.00
2014,02,15,17,36,35.40
2014,02,15,17,37,22.50
2014,02,15,17,38,30.60
2014,02,15,17,39,48.30
2014,02,15,17,40,37.00
2014,02,15,17,41,41.80
2014,02,15,17,42,29.00
2014,02,15,17,43,27.40
2014,02,15,17,44,33.80
2014,02,15,17,45,33.80
2014,02,15,17,46,33.80
2014,02,15,17,47,49.90
2014,02,15,17,48,33.80
2014,02,15,17,49,43.50
2014,02,15,17,50,27.40
2014,02,15,17,51,33.80
2014,02,15,17,52,35.40
2014,02,15,17,53,43.50
2014,02,15,17,54,38.60
2014,02,15,17,55,38.60
2014,02,15,17,56,56.30
2014,02,15,17,57,41.80
2014,02,15,17,58,27.40
2014,02,15,17,59,33.80
2014,02,15,18,00,38.60
2014,02,15,18,01,27.40
2014,02,15,18,02,40.20
2014,02,15,18,03,37.00
2014,02,15,18,04,32.20
2014,02,15,18,05,37.00
2014,02,15,18,06,32.20
2014,02,15,18,07,22.50
2014,02,15,18,08,20.90
2014,02,15,18,09,37.00
2014,02,15,18,10,45.10
2014,02,15,18,11,35.40
2014,02,15,18,12,38.60
2014,02,15,18,13,37.00
2014,02,15,18,14,33.80
2014,02,15,18,15,22.50
2014,02,15,18,16,16.10
2014,02,15,18,17,27.40
2014,02,15,18,18,30.60
2014,02,15,18,19,27.40
2014,02,15,18,20,24.20
2014,02,15,18,21,19.30
2014,02,15,18,22,22.50
2014,02,15,18,23,38.60
2014,02,15,18,24,29.00
2014,02,15,18,25,30.60
2014,02,15,18,26,27.40
2014,02,15,18,27,24.20
2014,02,15,18,28,24.20
2014,02,15,18,29,24.20
2014,02,15,18,30,22.50
2014,02,15,18,31,29.00
2014,02,15,18,32,24.20
2014,02,15,18,33,24.20
2014,02,15,18,34,22.50
2014,02,15,18,35,27.40
2014,02,15,18,36,25.70
2014,02,15,18,37,30.60
2014,02,15,18,38,38.60
2014,02,15,18,39,33.80
2014,02,15,18,40,29.00
2014,02,15,18,41,22.50
2014,02,15,18,42,38.60
2014,02,15,18,43,30.60
2014,02,15,18,44,35.40
2014,02,15,18,45,27.40
2014,02,15,18,46,40.20
2014,02,15,18,47,33.80
2014,02,15,18,48,33.80
2014,02,15,18,49,29.00
2014,02,15,18,50,37.00
2014,02,15,18,51,41.80
2014,02,15,18,52,37.00
2014,02,15,18,53,46.70
2014,02,15,18,54,53.10
2014,02,15,18,55,48.30
2014,02,15,18,56,38.60
2014,02,15,18,57,51.50
2014,02,15,18,58,78.80
2014,02,15,18,59,64.40
2014,02,15,19,00,43.50
2014,02,15,19,01,40.20
2014,02,15,19,02,38.60
2014,02,15,19,03,56.30
2014,02,15,19,04,43.50
2014,02,15,19,05,41.80
2014,02,15,19,06,41.80
2014,02,15,19,07,43.50
2014,02,15,19,08,40.20
2014,02,15,19,09,37.00
2014,02,15,19,10,43.50
2014,02,15,19,11,33.80
2014,02,15,19,12,35.40
2014,02,15,19,13,46.70
2014,02,15,19,14,38.60
2014,02,15,19,15,35.40
2014,02,15,19,16,37.00
2014,02,15,19,17,33.80
2014,02,15,19,18,32.20
2014,02,15,19,19,40.20
2014,02,15,19,20,53.10
2014,02,15,19,21,35.40
2014,02,15,19,22,35.40
2014,02,15,19,23,37.00
2014,02,15,19,24,17.70
2014,02,15,19,25,27.40
2014,02,15,19,26,20.90
2014,02,15,19,27,24.20
2014,02,15,19,28,33.80
2014,02,15,19,29,20.90
2014,02,15,19,30,29.00
2014,02,15,19,31,35.40
2014,02,15,19,32,30.60
2014,02,15,19,33,30.60
2014,02,15,19,34,35.40
2014,02,15,19,35,38.60
2014,02,15,19,36,37.00
2014,02,15,19,37,29.00
2014,02,15,19,38,24.20
2014,02,15,19,39,37.00
2014,02,15,19,40,46.70
2014,02,15,19,41,27.40
2014,02,15,19,42,30.60
2014,02,15,19,43,25.70
2014,02,15,19,44,30.60
2014,02,15,19,45,37.00
2014,02,15,19,46,30.60
2014,02,15,19,47,38.60
2014,02,15,19,48,38.60
2014,02,15,19,49,38.60
2014,02,15,19,50,45.10
2014,02,15,19,51,49.90
2014,02,15,19,52,40.20
2014,02,15,19,53,38.60
2014,02,15,19,54,33.80
2014,02,15,19,55,41.80
2014,02,15,19,56,41.80
2014,02,15,19,57,45.10
2014,02,15,19,58,32.20
2014,02,15,19,59,46.70
2014,02,15,20,00,48.30
2014,02,15,20,01,46.70
2014,02,15,20,02,45.10
2014,02,15,20,03,43.50
2014,02,15,20,04,33.80
2014,02,15,20,05,38.60
2014,02,15,20,06,32.20
2014,02,15,20,07,40.20
2014,02,15,20,08,33.80
2014,02,15,20,09,40.20
2014,02,15,20,10,37.00
2014,02,15,20,11,45.10
2014,02,15,20,12,32.20
2014,02,15,20,13,41.80
2014,02,15,20,14,45.10
2014,02,15,20,15,40.20
2014,02,15,20,16,41.80
2014,02,15,20,17,48.30
2014,02,15,20,18,57.90
2014,02,15,20,19,48.30
2014,02,15,20,20,45.10
2014,02,15,20,21,40.20
2014,02,15,20,22,46.70
2014,02,15,20,23,56.30
2014,02,15,20,24,33.80
2014,02,15,20,25,48.30
2014,02,15,20,26,40.20
2014,02,15,20,27,51.50
2014,02,15,20,28,57.90
2014,02,15,20,29,45.10
2014,02,15,20,30,37.00
2014,02,15,20,31,33.80
2014,02,15,20,32,53.10
2014,02,15,20,33,43.50
2014,02,15,20,34,38.60
2014,02,15,20,35,35.40
2014,02,15,20,36,40.20
2014,02,15,20,37,30.60
2014,02,15,20,38,25.70
2014,02,15,20,39,43.50
2014,02,15,20,40,35.40
2014,02,15,20,41,37.00
2014,02,15,20,42,32.20
2014,02,15,20,43,45.10
2014,02,15,20,44,32.20
2014,02,15,20,45,25.70
2014,02,15,20,46,48.30
2014,02,15,20,47,40.20
2014,02,15,20,48,27.40
2014,02,15,20,49,41.80
2014,02,15,20,50,48.30
2014,02,15,20,51,46.70
2014,02,15,20,52,37.00
2014,02,15,20,53,25.70
2014,02,15,20,54,32.20
2014,02,15,20,55,30.60
2014,02,15,20,56,45.10
2014,02,15,20,57,40.20
2014,02,15,20,58,38.60
2014,02,15,20,59,35.40
2014,02,15,21,00,38.60
2014,02,15,21,01,25.70
2014,02,15,21,02,22.50
2014,02,15,21,03,29.00
2014,02,15,21,04,27.40
2014,02,15,21,05,22.50
2014,02,15,21,06,37.00
2014,02,15,21,07,38.60
2014,02,15,21,08,29.00
2014,02,15,21,09,35.40
2014,02,15,21,10,41.80
2014,02,15,21,11,46.70
2014,02,15,21,12,32.20
2014,02,15,21,13,29.00
2014,02,15,21,14,43.50
2014,02,15,21,15,35.40
2014,02,15,21,16,37.00
2014,02,15,21,17,38.60
2014,02,15,21,18,32.20
2014,02,15,21,19,30.60
2014,02,15,21,20,33.80
2014,02,15,21,21,25.70
2014,02,15,21,22,37.00
2014,02,15,21,23,30.60
2014,02,15,21,24,27.40
2014,02,15,21,25,27.40
2014,02,15,21,26,33.80
2014,02,15,21,27,29.00
2014,02,15,21,28,30.60
2014,02,15,21,29,32.20
2014,02,15,21,30,32.20
2014,02,15,21,31,25.70
2014,02,15,21,32,30.60
2014,02,15,21,33,27.40
2014,02,15,21,34,29.00
2014,02,15,21,35,27.40
2014,02,15,21,36,29.00
2014,02,15,21,37,29.00
2014,02,15,21,38,56.30
2014,02,15,21,39,45.10
2014,02,15,21,40,33.80
2014,02,15,21,41,22.50
2014,02,15,21,42,35.40
2014,02,15,21,43,25.70
2014,02,15,21,44,22.50
2014,02,15,21,45,32.20
2014,02,15,21,46,27.40
2014,02,15,21,47,32.20
2014,02,15,21,48,43.50
2014,02,15,21,49,35.40
2014,02,15,21,50,33.80
2014,02,15,21,51,33.80
2014,02,15,21,52,38.60
2014,02,15,21,53,46.70
2014,02,15,21,54,51.50
2014,02,15,21,55,45.10
2014,02,15,21,56,35.40
2014,02,15,21,57,32.20
2014,02,15,21,58,43.50
2014,02,15,21,59,40.20
2014,02,15,22,00,35.40
2014,02,15,22,01,30.60
2014,02,15,22,02,32.20
2014,02,15,22,03,33.80
2014,02,15,22,04,46.70
2014,02,15,22,05,32.20
2014,02,15,22,06,33.80
2014,02,15,22,07,33.80
2014,02,15,22,08,37.00
2014,02,15,22,09,41.80
2014,02,15,22,10,29.00
2014,02,15,22,11,33.80
2014,02,15,22,12,29.00
2014,02,15,22,13,22.50
2014,02,15,22,14,30.60
2014,02,15,22,15,27.40
2014,02,15,22,16,35.40
2014,02,15,22,17,20.90
2014,02,15,22,18,32.20
2014,02,15,22,19,35.40
2014,02,15,22,20,25.70
2014,02,15,22,21,37.00
2014,02,15,22,22,48.30
2014,02,15,22,23,27.40
2014,02,15,22,24,43.50
2014,02,15,22,25,38.60
2014,02,15,22,26,37.00